Weather History for GMMZ - May, 2013

Change the Weather History Date:

Thursday, May 16, 2013

  Actual Average Record
Temperature  
Mean Temperature 66 °F -  
Max Temperature 77 °F 89 °F - ()
Min Temperature 56 °F 61 °F - ()
Cooling Degree Days 2    
Growing Degree Days 16 (Base 50)    
Moisture  
Dew Point 21 °F    
Average Humidity 20    
Maximum Humidity 41    
Minimum Humidity 4    
Precipitation  
Precipitation 0.00 in 0.01 in - ()
Sea Level Pressure  
Sea Level Pressure 29.71 in    
Wind  
Wind Speed 12 mph ()    
Max Wind Speed 22 mph    
Max Gust Speed -    
Visibility 7.9 miles    
Events      
T = Trace of Precipitation, MM = Missing Value Source: Averaged Metar Reports

Daily Weather History Graph

Daily Weather History Graph

Search for Another Location

Airport or City:

Trip Planner

Search our weather history database for the weather conditions in past years. The results will help you decide how hot, cold, wet, or windy it might be!

Date:

Astronomy

May. 16, 2013 Rise Set
Actual Time 6:31 AM WEST 8:16 PM WEST
Civil Twilight 6:05 AM WEST 8:43 PM WEST
Nautical Twilight 5:33 AM WEST 9:15 PM WEST
Astronomical Twilight 4:59 AM WEST 9:49 PM WEST
Moon 11:45 AM WEST (5/16) 12:34 AM WEST (5/16)
Length of Visible Light 14h 37m
Length of Day
13h 44m
Waxing Crescent, 33% of the Moon is Illuminated
May 16
Waxing Crescent
May 18
First Quarter
May 25
Full
May 31
Last Quarter
Jun 8
New

Hourly Weather History & Observations

Time (WEST) Temp. Dew Point Humidity Pressure Visibility Wind Dir Wind Speed Gust Speed Precip Events Conditions
12:00 AM 60.8 °F 33.8 °F 36% 29.71 in - WNW 17.3 mph - N/A   Clear
1:00 AM 59 °F 33 °F 25%  in 12 mi West 11.5 mph - -  
1:00 AM 59.0 °F 33.8 °F 39% 29.71 in - West 11.5 mph - N/A   Clear
2:00 AM 64.4 °F 32.0 °F 30% 29.68 in - West 15.0 mph - N/A   Clear
3:00 AM 59.0 °F 28.4 °F 31% 29.68 in - West 21.9 mph - N/A   Clear
4:00 AM 57.2 °F 32.0 °F 38% 29.68 in - WNW 151.9 mph - N/A   Clear
5:00 AM 57.2 °F 33.8 °F 41% 29.68 in - NNW 11.5 mph - N/A   Clear
7:00 AM 57 °F 33 °F 29%  in 12 mi NW 10.4 mph - -  
7:00 AM 57.2 °F 33.8 °F 41% 29.71 in - WNW 10.4 mph - N/A   Clear
8:00 AM 59.0 °F 33.8 °F 39% 29.71 in 6.2 mi NNW 12.7 mph - N/A   Partly Cloudy
9:00 AM 62.6 °F 32.0 °F 32% 29.74 in 6.2 mi NNW 10.4 mph - N/A   Partly Cloudy
10:00 AM 64 °F 31 °F 18%  in 12 mi NNW 8.1 mph - -   Scattered Clouds
10:00 AM 64.4 °F 30.2 °F 28% 29.74 in 6.2 mi NNW 8.1 mph - N/A   Partly Cloudy
11:00 AM 68.0 °F 24.8 °F 20% 29.74 in 6.2 mi WNW 16.1 mph - N/A   Partly Cloudy
12:00 PM 68.0 °F 24.8 °F 20% 29.74 in - West 15.0 mph - N/A   Partly Cloudy
1:00 PM 72 °F 20 °F 7%  in 12 mi West 12.7 mph - -   Scattered Clouds
1:00 PM 71.6 °F 21.2 °F 15% 29.74 in 6.2 mi West 12.7 mph - N/A   Partly Cloudy
2:00 PM 75.2 °F 14.0 °F 10% 29.71 in 6.2 mi West 13.8 mph - N/A   Partly Cloudy
3:00 PM 73.4 °F 12.2 °F 10% 29.71 in 6.2 mi WNW 9.2 mph - N/A   Partly Cloudy
4:00 PM 76 °F 15 °F 4%  in 12 mi WNW 12.7 mph - -   Scattered Clouds
4:00 PM 77.0 °F 14.0 °F 9% 29.68 in 6.2 mi WNW 12.7 mph - N/A   Partly Cloudy
5:00 PM 77.0 °F 8.6 °F 7% 29.68 in 6.2 mi WNW 19.6 mph - N/A   Partly Cloudy
6:00 PM 75.2 °F -0.4 °F 5% 29.68 in 6.2 mi WNW 19.6 mph - N/A   Partly Cloudy
7:00 PM 74 °F 3 °F 4%  in 12 mi WNW 17.3 mph - -   Scattered Clouds
7:00 PM 75.2 °F 3.2 °F 6% 29.68 in 6.2 mi WNW 17.3 mph - N/A   Partly Cloudy
8:00 PM 71.6 °F 6.8 °F 8% 29.71 in 6.2 mi North 11.5 mph - N/A   Partly Cloudy
10:00 PM 66.2 °F 3.2 °F 8% 29.74 in 6.2 mi SW 4.6 mph - N/A   Partly Cloudy
11:00 PM 64.4 °F 1.4 °F 8% - 6.2 mi WSW 12.7 mph - N/A   Partly Cloudy